Time,TemperatureF,DewpointF,PressureIn,WindDirection,WindDirectionDegrees,WindSpeedMPH,WindSpeedGustMPH,Humidity,HourlyPrecipIn,Conditions,Clouds,dailyrainin,SoftwareType,DateUTC
2013-04-24 00:01:00,59.2,22.1,30.06,South,180,0.2,1.3,24,0.00,,,0.00,WUHU216HW,2013-04-24 06:01:00,
2013-04-24 00:06:00,59.0,21.9,30.06,East,90,0.9,1.3,24,0.00,,,0.00,WUHU216HW,2013-04-24 06:06:00,
2013-04-24 00:11:00,58.9,22.7,30.06,ESE,113,0.9,2.2,25,0.00,,,0.00,WUHU216HW,2013-04-24 06:11:00,
2013-04-24 00:16:00,58.7,25.5,30.07,SE,135,4.5,4.5,28,0.00,,,0.00,WUHU216HW,2013-04-24 06:16:00,
2013-04-24 00:21:00,58.1,25.0,30.07,SE,135,1.8,4.9,28,0.00,,,0.00,WUHU216HW,2013-04-24 06:21:00,
2013-04-24 00:26:00,58.0,24.9,30.07,South,180,3.4,4.9,28,0.00,,,0.00,WUHU216HW,2013-04-24 06:26:00,
2013-04-24 00:31:00,57.6,25.5,30.07,SE,135,1.6,4.7,29,0.00,,,0.00,WUHU216HW,2013-04-24 06:31:00,
2013-04-24 00:36:00,57.4,24.4,30.07,SSW,203,3.1,4.7,28,0.00,,,0.00,WUHU216HW,2013-04-24 06:36:00,
2013-04-24 00:41:00,57.2,26.1,30.07,East,90,3.4,4.9,30,0.00,,,0.00,WUHU216HW,2013-04-24 06:41:00,
2013-04-24 00:46:00,56.9,25.7,30.07,ENE,68,3.1,5.1,30,0.00,,,0.00,WUHU216HW,2013-04-24 06:46:00,
2013-04-24 00:51:00,56.7,26.3,30.07,East,90,5.4,5.4,31,0.00,,,0.00,WUHU216HW,2013-04-24 06:51:00,
2013-04-24 00:56:00,56.5,26.2,30.08,East,90,2.9,5.4,31,0.00,,,0.00,WUHU216HW,2013-04-24 06:56:00,
2013-04-24 01:01:00,56.3,26.0,30.08,East,90,2.7,5.4,31,0.00,,,0.00,WUHU216HW,2013-04-24 07:01:00,
2013-04-24 01:06:00,56.0,26.4,30.08,East,90,1.8,4.0,32,0.00,,,0.00,WUHU216HW,2013-04-24 07:06:00,
2013-04-24 01:11:00,55.6,26.0,30.09,SE,135,3.6,3.6,32,0.00,,,0.00,WUHU216HW,2013-04-24 07:11:00,
2013-04-24 01:16:00,55.4,25.9,30.09,SE,135,4.0,4.0,32,0.00,,,0.00,WUHU216HW,2013-04-24 07:16:00,
2013-04-24 01:21:00,55.3,26.5,30.08,East,90,4.5,4.5,33,0.00,,,0.00,WUHU216HW,2013-04-24 07:21:00,
2013-04-24 01:26:00,55.1,26.3,30.08,East,90,3.6,4.7,33,0.00,,,0.00,WUHU216HW,2013-04-24 07:26:00,
2013-04-24 01:31:00,54.9,26.1,30.09,SE,135,3.4,4.7,33,0.00,,,0.00,WUHU216HW,2013-04-24 07:31:00,
2013-04-24 01:36:00,54.7,26.0,30.09,SE,135,2.9,4.7,33,0.00,,,0.00,WUHU216HW,2013-04-24 07:36:00,
2013-04-24 01:41:00,54.4,25.7,30.09,East,90,1.8,4.7,33,0.00,,,0.00,WUHU216HW,2013-04-24 07:41:00,
2013-04-24 01:46:00,54.2,26.2,30.09,East,90,3.8,5.1,34,0.00,,,0.00,WUHU216HW,2013-04-24 07:46:00,
2013-04-24 01:51:00,53.8,25.9,30.08,SSE,158,4.5,5.1,34,0.00,,,0.00,WUHU216HW,2013-04-24 07:51:00,
2013-04-24 01:56:00,53.6,25.7,30.09,SE,135,2.2,4.7,34,0.00,,,0.00,WUHU216HW,2013-04-24 07:56:00,
2013-04-24 02:01:00,53.5,25.7,30.09,ESE,113,2.5,4.9,34,0.00,,,0.00,WUHU216HW,2013-04-24 08:01:00,
2013-04-24 02:06:00,53.3,25.5,30.09,East,90,3.6,4.9,34,0.00,,,0.00,WUHU216HW,2013-04-24 08:06:00,
2013-04-24 02:11:00,52.9,25.8,30.09,East,90,2.5,3.6,35,0.00,,,0.00,WUHU216HW,2013-04-24 08:11:00,
2013-04-24 02:16:00,52.9,25.8,30.09,ESE,113,1.1,3.1,35,0.00,,,0.00,WUHU216HW,2013-04-24 08:16:00,
2013-04-24 02:21:00,52.6,24.9,30.09,ENE,68,0.0,3.1,34,0.00,,,0.00,WUHU216HW,2013-04-24 08:21:00,
2013-04-24 02:26:00,52.6,24.1,30.08,NE,45,0.7,1.8,33,0.00,,,0.00,WUHU216HW,2013-04-24 08:26:00,
2013-04-24 02:31:00,52.4,24.7,30.09,NE,45,2.7,2.7,34,0.00,,,0.00,WUHU216HW,2013-04-24 08:31:00,
2013-04-24 02:36:00,52.2,24.5,30.09,NNE,23,0.7,2.7,34,0.00,,,0.00,WUHU216HW,2013-04-24 08:36:00,
2013-04-24 02:41:00,51.8,24.1,30.09,ESE,113,3.6,3.6,34,0.00,,,0.00,WUHU216HW,2013-04-24 08:41:00,
2013-04-24 02:46:00,51.3,23.7,30.09,ENE,68,1.1,3.6,34,0.00,,,0.00,WUHU216HW,2013-04-24 08:46:00,
2013-04-24 02:51:00,51.1,23.5,30.09,ESE,113,2.5,2.9,34,0.00,,,0.00,WUHU216HW,2013-04-24 08:51:00,
2013-04-24 02:56:00,50.8,23.9,30.09,ENE,68,2.2,2.5,35,0.00,,,0.00,WUHU216HW,2013-04-24 08:56:00,
2013-04-24 03:01:00,50.6,24.4,30.09,ESE,113,1.3,2.7,36,0.00,,,0.00,WUHU216HW,2013-04-24 09:01:00,
2013-04-24 03:06:00,50.2,24.0,30.09,East,90,0.4,2.7,36,0.00,,,0.00,WUHU216HW,2013-04-24 09:06:00,
2013-04-24 03:11:00,50.0,23.2,30.09,ESE,113,0.2,2.5,35,0.00,,,0.00,WUHU216HW,2013-04-24 09:11:00,
2013-04-24 03:16:00,50.0,24.0,30.09,East,90,0.9,2.5,36,0.00,,,0.00,WUHU216HW,2013-04-24 09:16:00,
2013-04-24 03:21:00,49.9,23.8,30.09,ESE,113,0.7,2.5,36,0.00,,,0.00,WUHU216HW,2013-04-24 09:21:00,
2013-04-24 03:26:00,49.7,23.6,30.09,SE,135,0.9,2.5,36,0.00,,,0.00,WUHU216HW,2013-04-24 09:26:00,
2013-04-24 03:31:00,49.5,24.1,30.10,ENE,68,2.5,2.5,37,0.00,,,0.00,WUHU216HW,2013-04-24 09:31:00,
2013-04-24 03:36:00,49.3,24.7,30.10,SE,135,2.2,3.4,38,0.00,,,0.00,WUHU216HW,2013-04-24 09:36:00,
2013-04-24 03:41:00,49.1,24.5,30.10,ESE,113,2.2,3.4,38,0.00,,,0.00,WUHU216HW,2013-04-24 09:41:00,
2013-04-24 03:46:00,49.0,24.3,30.10,ESE,113,2.0,3.6,38,0.00,,,0.00,WUHU216HW,2013-04-24 09:46:00,
2013-04-24 03:51:00,48.8,24.1,30.10,ENE,68,4.0,4.7,38,0.00,,,0.00,WUHU216HW,2013-04-24 09:51:00,
2013-04-24 03:56:00,48.6,24.0,30.11,SE,135,2.2,4.7,38,0.00,,,0.00,WUHU216HW,2013-04-24 09:56:00,
2013-04-24 04:01:00,48.2,23.7,30.11,ESE,113,1.1,5.6,38,0.00,,,0.00,WUHU216HW,2013-04-24 10:01:00,
2013-04-24 04:06:00,47.9,24.7,30.11,ESE,113,6.3,6.3,40,0.00,,,0.00,WUHU216HW,2013-04-24 10:06:00,
2013-04-24 04:11:00,47.7,24.6,30.11,East,90,2.2,6.3,40,0.00,,,0.00,WUHU216HW,2013-04-24 10:11:00,
2013-04-24 04:16:00,47.5,24.4,30.10,SE,135,2.2,4.7,40,0.00,,,0.00,WUHU216HW,2013-04-24 10:16:00,
2013-04-24 04:21:00,47.2,24.6,30.11,ESE,113,4.7,4.7,41,0.00,,,0.00,WUHU216HW,2013-04-24 10:21:00,
2013-04-24 04:26:00,47.0,24.4,30.11,SE,135,4.0,4.7,41,0.00,,,0.00,WUHU216HW,2013-04-24 10:26:00,
2013-04-24 04:31:00,46.8,24.3,30.11,East,90,2.5,5.1,41,0.00,,,0.00,WUHU216HW,2013-04-24 10:31:00,
2013-04-24 04:36:00,46.6,24.1,30.11,ESE,113,3.4,5.1,41,0.00,,,0.00,WUHU216HW,2013-04-24 10:36:00,
2013-04-24 04:41:00,46.4,23.9,30.11,SE,135,3.6,4.5,41,0.00,,,0.00,WUHU216HW,2013-04-24 10:41:00,
2013-04-24 04:46:00,46.3,24.3,30.11,ESE,113,3.4,4.0,42,0.00,,,0.00,WUHU216HW,2013-04-24 10:46:00,
2013-04-24 04:51:00,46.1,24.1,30.12,ESE,113,5.4,5.4,42,0.00,,,0.00,WUHU216HW,2013-04-24 10:51:00,
2013-04-24 04:56:00,45.9,24.0,30.12,ESE,113,2.5,5.4,42,0.00,,,0.00,WUHU216HW,2013-04-24 10:56:00,
2013-04-24 05:01:00,45.7,24.4,30.12,East,90,2.5,4.3,43,0.00,,,0.00,WUHU216HW,2013-04-24 11:01:00,
2013-04-24 05:06:00,45.4,24.0,30.12,ESE,113,2.5,3.8,43,0.00,,,0.00,WUHU216HW,2013-04-24 11:06:00,
2013-04-24 05:11:00,45.0,23.8,30.12,East,90,2.2,6.9,43,0.00,,,0.00,WUHU216HW,2013-04-24 11:11:00,
2013-04-24 05:16:00,44.8,24.1,30.13,SSE,158,5.1,6.9,44,0.00,,,0.00,WUHU216HW,2013-04-24 11:16:00,
2013-04-24 05:21:00,44.6,23.9,30.13,ESE,113,5.4,5.4,44,0.00,,,0.00,WUHU216HW,2013-04-24 11:21:00,
2013-04-24 05:26:00,44.5,23.8,30.13,ESE,113,3.6,5.4,44,0.00,,,0.00,WUHU216HW,2013-04-24 11:26:00,
2013-04-24 05:31:00,44.3,24.1,30.14,SE,135,3.4,5.6,45,0.00,,,0.00,WUHU216HW,2013-04-24 11:31:00,
2013-04-24 05:36:00,44.1,23.5,30.13,ESE,113,2.0,5.6,44,0.00,,,0.00,WUHU216HW,2013-04-24 11:36:00,
2013-04-24 05:43:00,43.9,23.3,30.14,ESE,113,1.8,3.4,44,0.00,,,0.00,WUHU216HW,2013-04-24 11:43:00,
2013-04-24 05:48:00,43.7,23.7,30.14,ESE,113,3.4,5.6,45,0.00,,,0.00,WUHU216HW,2013-04-24 11:48:00,
2013-04-24 05:53:00,43.6,23.5,30.14,ESE,113,3.4,5.6,45,0.00,,,0.00,WUHU216HW,2013-04-24 11:53:00,
2013-04-24 05:58:00,43.6,23.5,30.14,ESE,113,1.8,4.3,45,0.00,,,0.00,WUHU216HW,2013-04-24 11:58:00,
2013-04-24 06:03:00,43.4,23.3,30.14,ESE,113,1.1,4.0,45,0.00,,,0.00,WUHU216HW,2013-04-24 12:03:00,
2013-04-24 06:08:00,43.2,23.2,30.14,ESE,113,2.5,4.0,45,0.00,,,0.00,WUHU216HW,2013-04-24 12:08:00,
2013-04-24 06:13:00,43.0,23.6,30.15,SE,135,4.0,4.7,46,0.00,,,0.00,WUHU216HW,2013-04-24 12:13:00,
2013-04-24 06:18:00,42.8,23.4,30.15,East,90,4.0,4.7,46,0.00,,,0.00,WUHU216HW,2013-04-24 12:18:00,
2013-04-24 06:23:00,42.8,23.4,30.15,East,90,1.6,4.5,46,0.00,,,0.00,WUHU216HW,2013-04-24 12:23:00,
2013-04-24 06:28:00,42.7,23.8,30.15,East,90,4.0,5.1,47,0.00,,,0.00,WUHU216HW,2013-04-24 12:28:00,
2013-04-24 06:33:00,42.5,23.6,30.15,ESE,113,2.5,5.1,47,0.00,,,0.00,WUHU216HW,2013-04-24 12:33:00,
2013-04-24 06:38:00,42.5,23.6,30.16,ESE,113,2.2,5.1,47,0.00,,,0.00,WUHU216HW,2013-04-24 12:38:00,
2013-04-24 06:43:00,42.5,23.6,30.16,ESE,113,2.5,4.3,47,0.00,,,0.00,WUHU216HW,2013-04-24 12:43:00,
2013-04-24 06:48:00,42.5,23.6,30.16,East,90,2.5,4.9,47,0.00,,,0.00,WUHU216HW,2013-04-24 12:48:00,
2013-04-24 06:53:00,42.3,23.4,30.17,ESE,113,2.5,4.9,47,0.00,,,0.00,WUHU216HW,2013-04-24 12:53:00,
2013-04-24 06:58:00,42.3,23.4,30.17,ESE,113,2.0,4.0,47,0.00,,,0.00,WUHU216HW,2013-04-24 12:58:00,
2013-04-24 07:03:00,42.5,23.6,30.17,SE,135,1.3,3.4,47,0.00,,,0.00,WUHU216HW,2013-04-24 13:03:00,
2013-04-24 07:08:00,42.7,23.8,30.17,ESE,113,3.1,4.3,47,0.00,,,0.00,WUHU216HW,2013-04-24 13:08:00,
2013-04-24 07:13:00,42.7,23.8,30.17,East,90,1.1,4.3,47,0.00,,,0.00,WUHU216HW,2013-04-24 13:13:00,
2013-04-24 07:18:00,42.8,23.9,30.18,East,90,2.2,3.8,47,0.00,,,0.00,WUHU216HW,2013-04-24 13:18:00,
2013-04-24 07:23:00,42.8,23.4,30.18,ENE,68,1.6,3.8,46,0.00,,,0.00,WUHU216HW,2013-04-24 13:23:00,
2013-04-24 07:28:00,43.0,23.6,30.18,ESE,113,2.2,3.4,46,0.00,,,0.00,WUHU216HW,2013-04-24 13:28:00,
2013-04-24 07:33:00,43.2,23.8,30.18,ESE,113,1.1,3.4,46,0.00,,,0.00,WUHU216HW,2013-04-24 13:33:00,
2013-04-24 07:38:00,43.9,24.4,30.18,ESE,113,1.3,2.7,46,0.00,,,0.00,WUHU216HW,2013-04-24 13:38:00,
2013-04-24 07:43:00,45.4,25.1,30.19,SE,135,2.5,2.7,45,0.00,,,0.00,WUHU216HW,2013-04-24 13:43:00,
2013-04-24 07:48:00,46.4,25.0,30.19,SSW,203,1.1,2.7,43,0.00,,,0.00,WUHU216HW,2013-04-24 13:48:00,
2013-04-24 07:53:00,47.3,25.3,30.19,South,180,0.4,2.5,42,0.00,,,0.00,WUHU216HW,2013-04-24 13:53:00,
2013-04-24 07:58:00,47.9,25.2,30.19,SE,135,0.7,2.5,41,0.00,,,0.00,WUHU216HW,2013-04-24 13:58:00,
2013-04-24 08:03:00,48.1,24.8,30.19,SE,135,2.5,3.4,40,0.00,,,0.00,WUHU216HW,2013-04-24 14:03:00,
2013-04-24 08:08:00,48.2,25.0,30.19,SSE,158,3.1,3.4,40,0.00,,,0.00,WUHU216HW,2013-04-24 14:08:00,
2013-04-24 08:13:00,48.6,24.7,30.19,ESE,113,1.6,3.1,39,0.00,,,0.00,WUHU216HW,2013-04-24 14:13:00,
2013-04-24 08:18:00,48.6,24.7,30.19,SE,135,0.7,2.7,39,0.00,,,0.00,WUHU216HW,2013-04-24 14:18:00,
2013-04-24 08:23:00,49.0,25.0,30.19,SSW,203,1.8,4.0,39,0.00,,,0.00,WUHU216HW,2013-04-24 14:23:00,
2013-04-24 08:28:00,49.5,24.9,30.19,SE,135,4.9,4.9,38,0.00,,,0.00,WUHU216HW,2013-04-24 14:28:00,
2013-04-24 08:33:00,50.0,25.3,30.19,SE,135,1.8,4.9,38,0.00,,,0.00,WUHU216HW,2013-04-24 14:33:00,
2013-04-24 08:38:00,50.2,26.1,30.19,SSW,203,4.7,6.0,39,0.00,,,0.00,WUHU216HW,2013-04-24 14:38:00,
2013-04-24 08:43:00,50.6,25.7,30.19,SSW,203,4.9,6.0,38,0.00,,,0.00,WUHU216HW,2013-04-24 14:43:00,
2013-04-24 08:48:00,50.8,25.9,30.20,ESE,113,3.1,5.4,38,0.00,,,0.00,WUHU216HW,2013-04-24 14:48:00,
2013-04-24 08:53:00,50.8,25.2,30.19,ESE,113,1.1,5.4,37,0.00,,,0.00,WUHU216HW,2013-04-24 14:53:00,
2013-04-24 08:58:00,50.8,25.9,30.19,East,90,1.8,3.8,38,0.00,,,0.00,WUHU216HW,2013-04-24 14:58:00,
2013-04-24 09:03:00,51.1,26.3,30.19,SE,135,2.5,3.1,38,0.00,,,0.00,WUHU216HW,2013-04-24 15:03:00,
2013-04-24 09:09:00,51.3,25.8,30.19,SSE,158,2.5,3.4,37,0.00,,,0.00,WUHU216HW,2013-04-24 15:09:00,
2013-04-24 09:14:00,52.0,26.4,30.19,ESE,113,2.9,4.0,37,0.00,,,0.00,WUHU216HW,2013-04-24 15:14:00,
2013-04-24 09:19:00,52.6,26.2,30.19,SSE,158,3.1,5.6,36,0.00,,,0.00,WUHU216HW,2013-04-24 15:19:00,
2013-04-24 09:24:00,52.9,26.5,30.19,SE,135,0.7,5.6,36,0.00,,,0.00,WUHU216HW,2013-04-24 15:24:00,
2013-04-24 09:29:00,53.3,26.1,30.19,ESE,113,1.6,4.7,35,0.00,,,0.00,WUHU216HW,2013-04-24 15:29:00,
2013-04-24 09:34:00,53.8,25.9,30.19,NNE,23,2.5,4.3,34,0.00,,,0.00,WUHU216HW,2013-04-24 15:34:00,
2013-04-24 09:39:00,53.6,25.1,30.19,WNW,293,0.4,4.0,33,0.00,,,0.00,WUHU216HW,2013-04-24 15:39:00,
2013-04-24 09:44:00,53.8,25.9,30.19,SSE,158,2.0,4.7,34,0.00,,,0.00,WUHU216HW,2013-04-24 15:44:00,
2013-04-24 09:49:00,54.9,26.1,30.19,SW,225,1.3,4.7,33,0.00,,,0.00,WUHU216HW,2013-04-24 15:49:00,
2013-04-24 09:54:00,55.6,26.0,30.19,WSW,248,1.8,4.5,32,0.00,,,0.00,WUHU216HW,2013-04-24 15:54:00,
2013-04-24 09:59:00,55.1,25.6,30.19,SSE,158,3.6,3.8,32,0.00,,,0.00,WUHU216HW,2013-04-24 15:59:00,
2013-04-24 10:04:00,55.3,25.8,30.19,NE,45,1.1,3.6,32,0.00,,,0.00,WUHU216HW,2013-04-24 16:04:00,
2013-04-24 10:09:00,55.8,26.2,30.19,NE,45,1.1,3.6,32,0.00,,,0.00,WUHU216HW,2013-04-24 16:09:00,
2013-04-24 10:14:00,56.7,27.0,30.19,ENE,68,0.7,2.5,32,0.00,,,0.00,WUHU216HW,2013-04-24 16:14:00,
2013-04-24 10:19:00,57.6,27.1,30.19,SSW,203,2.5,5.1,31,0.00,,,0.00,WUHU216HW,2013-04-24 16:19:00,
2013-04-24 10:24:00,58.3,27.8,30.19,SSE,158,8.3,8.3,31,0.00,,,0.00,WUHU216HW,2013-04-24 16:24:00,
2013-04-24 10:29:00,58.7,26.5,30.19,SW,225,3.4,8.3,29,0.00,,,0.00,WUHU216HW,2013-04-24 16:29:00,
2013-04-24 10:34:00,58.9,27.5,30.18,SSE,158,4.3,8.3,30,0.00,,,0.00,WUHU216HW,2013-04-24 16:34:00,
2013-04-24 10:39:00,59.4,27.0,30.18,SSE,158,3.6,6.3,29,0.00,,,0.00,WUHU216HW,2013-04-24 16:39:00,
2013-04-24 10:44:00,60.1,27.6,30.18,SSE,158,1.8,4.3,29,0.00,,,0.00,WUHU216HW,2013-04-24 16:44:00,
2013-04-24 10:49:00,60.8,27.3,30.18,ESE,113,3.8,5.8,28,0.00,,,0.00,WUHU216HW,2013-04-24 16:49:00,
2013-04-24 10:54:00,61.0,27.5,30.18,ESE,113,7.6,7.6,28,0.00,,,0.00,WUHU216HW,2013-04-24 16:54:00,
2013-04-24 10:59:00,61.4,27.7,30.18,SE,135,4.5,7.6,28,0.00,,,0.00,WUHU216HW,2013-04-24 16:59:00,
2013-04-24 11:04:00,61.2,27.5,30.17,East,90,2.2,7.6,28,0.00,,,0.00,WUHU216HW,2013-04-24 17:04:00,
2013-04-24 11:09:00,61.6,26.9,30.17,SE,135,3.6,6.9,27,0.00,,,0.00,WUHU216HW,2013-04-24 17:09:00,
2013-04-24 11:14:00,61.9,27.3,30.17,East,90,4.9,6.9,27,0.00,,,0.00,WUHU216HW,2013-04-24 17:14:00,
2013-04-24 11:19:00,62.3,27.5,30.17,SSE,158,5.8,6.3,27,0.00,,,0.00,WUHU216HW,2013-04-24 17:19:00,
2013-04-24 11:24:00,63.2,28.4,30.17,SE,135,4.3,6.7,27,0.00,,,0.00,WUHU216HW,2013-04-24 17:24:00,
2013-04-24 11:29:00,63.4,28.5,30.17,East,90,3.6,6.7,27,0.00,,,0.00,WUHU216HW,2013-04-24 17:29:00,
2013-04-24 11:34:00,63.2,28.4,30.17,SSE,158,1.1,6.5,27,0.00,,,0.00,WUHU216HW,2013-04-24 17:34:00,
2013-04-24 11:39:00,63.7,27.8,30.16,ESE,113,4.5,6.5,26,0.00,,,0.00,WUHU216HW,2013-04-24 17:39:00,
2013-04-24 11:44:00,63.9,27.0,30.16,SSW,203,0.7,5.6,25,0.00,,,0.00,WUHU216HW,2013-04-24 17:44:00,
2013-04-24 11:49:00,64.3,28.3,30.16,ESE,113,4.7,5.4,26,0.00,,,0.00,WUHU216HW,2013-04-24 17:49:00,
2013-04-24 11:54:00,64.3,28.3,30.16,ESE,113,3.4,5.4,26,0.00,,,0.00,WUHU216HW,2013-04-24 17:54:00,
2013-04-24 11:59:00,64.8,28.7,30.15,SE,135,4.5,7.6,26,0.00,,,0.00,WUHU216HW,2013-04-24 17:59:00,
2013-04-24 12:04:00,65.2,29.1,30.15,SE,135,2.0,7.6,26,0.00,,,0.00,WUHU216HW,2013-04-24 18:04:00,
2013-04-24 12:09:00,65.9,28.7,30.15,SE,135,5.6,5.6,25,0.00,,,0.00,WUHU216HW,2013-04-24 18:09:00,
2013-04-24 12:14:00,66.6,29.3,30.15,ENE,68,2.0,10.3,25,0.00,,,0.00,WUHU216HW,2013-04-24 18:14:00,
2013-04-24 12:19:00,66.6,28.3,30.15,SE,135,2.9,10.3,24,0.00,,,0.00,WUHU216HW,2013-04-24 18:19:00,
2013-04-24 12:24:00,67.1,28.7,30.14,East,90,2.5,5.6,24,0.00,,,0.00,WUHU216HW,2013-04-24 18:24:00,
2013-04-24 12:29:00,67.1,28.7,30.14,South,180,7.2,11.0,24,0.00,,,0.00,WUHU216HW,2013-04-24 18:29:00,
2013-04-24 12:34:00,67.9,29.3,30.14,West,270,3.8,11.0,24,0.00,,,0.00,WUHU216HW,2013-04-24 18:34:00,
2013-04-24 12:39:00,68.2,28.7,30.14,SSW,203,6.0,8.1,23,0.00,,,0.00,WUHU216HW,2013-04-24 18:39:00,
2013-04-24 12:44:00,68.6,29.0,30.14,NE,45,3.1,8.1,23,0.00,,,0.00,WUHU216HW,2013-04-24 18:44:00,
2013-04-24 12:49:00,68.9,29.3,30.13,ESE,113,2.5,5.6,23,0.00,,,0.00,WUHU216HW,2013-04-24 18:49:00,
2013-04-24 12:54:00,68.9,29.3,30.13,SSE,158,1.3,5.6,23,0.00,,,0.00,WUHU216HW,2013-04-24 18:54:00,
2013-04-24 12:59:00,69.3,28.5,30.13,SE,135,4.3,7.6,22,0.00,,,0.00,WUHU216HW,2013-04-24 18:59:00,
2013-04-24 13:04:00,68.9,28.3,30.12,SSE,158,3.6,7.6,22,0.00,,,0.00,WUHU216HW,2013-04-24 19:04:00,
2013-04-24 13:09:00,69.1,28.5,30.12,ESE,113,5.1,5.8,22,0.00,,,0.00,WUHU216HW,2013-04-24 19:09:00,
2013-04-24 13:14:00,69.5,28.7,30.12,SSE,158,0.4,5.8,22,0.00,,,0.00,WUHU216HW,2013-04-24 19:14:00,
2013-04-24 13:19:00,70.2,29.4,30.12,East,90,3.8,5.4,22,0.00,,,0.00,WUHU216HW,2013-04-24 19:19:00,
2013-04-24 13:24:00,69.7,28.9,30.12,ESE,113,1.6,5.4,22,0.00,,,0.00,WUHU216HW,2013-04-24 19:24:00,
2013-04-24 13:29:00,70.2,29.4,30.11,ESE,113,2.7,4.9,22,0.00,,,0.00,WUHU216HW,2013-04-24 19:29:00,
2013-04-24 13:34:00,70.9,28.9,30.11,ESE,113,4.7,4.9,21,0.00,,,0.00,WUHU216HW,2013-04-24 19:34:00,
2013-04-24 13:39:00,70.9,28.9,30.11,ENE,68,1.8,4.9,21,0.00,,,0.00,WUHU216HW,2013-04-24 19:39:00,
2013-04-24 13:44:00,71.3,29.2,30.11,SSE,158,4.9,6.9,21,0.00,,,0.00,WUHU216HW,2013-04-24 19:44:00,
2013-04-24 13:49:00,72.0,29.8,30.10,ESE,113,3.4,6.9,21,0.00,,,0.00,WUHU216HW,2013-04-24 19:49:00,
2013-04-24 13:54:00,72.0,28.8,30.10,SE,135,2.5,5.4,20,0.00,,,0.00,WUHU216HW,2013-04-24 19:54:00,
2013-04-24 13:59:00,72.4,30.2,30.10,ENE,68,2.7,5.4,21,0.00,,,0.00,WUHU216HW,2013-04-24 19:59:00,
2013-04-24 14:04:00,72.4,30.2,30.10,ESE,113,4.7,6.7,21,0.00,,,0.00,WUHU216HW,2013-04-24 20:04:00,
2013-04-24 14:09:00,72.9,29.6,30.09,ESE,113,1.8,6.7,20,0.00,,,0.00,WUHU216HW,2013-04-24 20:09:00,
2013-04-24 14:14:00,73.8,28.7,30.09,ESE,113,4.0,4.7,19,0.00,,,0.00,WUHU216HW,2013-04-24 20:14:00,
2013-04-24 14:19:00,74.5,29.3,30.09,SE,135,4.9,6.9,19,0.00,,,0.00,WUHU216HW,2013-04-24 20:19:00,
2013-04-24 14:24:00,74.2,29.0,30.09,SSE,158,3.1,6.9,19,0.00,,,0.00,WUHU216HW,2013-04-24 20:24:00,
2013-04-24 14:29:00,74.2,29.0,30.08,East,90,3.4,4.7,19,0.00,,,0.00,WUHU216HW,2013-04-24 20:29:00,
2013-04-24 14:34:00,74.0,28.9,30.08,SSE,158,2.0,4.9,19,0.00,,,0.00,WUHU216HW,2013-04-24 20:34:00,
2013-04-24 14:39:00,74.3,29.2,30.08,SE,135,1.3,5.8,19,0.00,,,0.00,WUHU216HW,2013-04-24 20:39:00,
2013-04-24 14:44:00,74.9,27.9,30.07,SE,135,4.5,6.0,18,0.00,,,0.00,WUHU216HW,2013-04-24 20:44:00,
2013-04-24 14:49:00,74.9,27.9,30.07,North,0,2.7,6.5,18,0.00,,,0.00,WUHU216HW,2013-04-24 20:49:00,
2013-04-24 14:54:00,74.3,27.5,30.06,ESE,113,1.1,6.5,18,0.00,,,0.00,WUHU216HW,2013-04-24 20:54:00,
2013-04-24 14:59:00,74.9,27.9,30.06,NNE,23,1.8,6.3,18,0.00,,,0.00,WUHU216HW,2013-04-24 20:59:00,
2013-04-24 15:04:00,75.2,28.2,30.06,SW,225,3.8,6.3,18,0.00,,,0.00,WUHU216HW,2013-04-24 21:04:00,
2013-04-24 15:09:00,76.1,28.9,30.06,ENE,68,1.3,5.8,18,0.00,,,0.00,WUHU216HW,2013-04-24 21:09:00,
2013-04-24 15:14:00,76.3,29.1,30.06,SSE,158,4.0,5.6,18,0.00,,,0.00,WUHU216HW,2013-04-24 21:14:00,
2013-04-24 15:19:00,76.7,29.3,30.05,East,90,2.2,5.6,18,0.00,,,0.00,WUHU216HW,2013-04-24 21:19:00,
2013-04-24 15:24:00,76.7,27.7,30.05,SSW,203,5.8,7.4,17,0.00,,,0.00,WUHU216HW,2013-04-24 21:24:00,
2013-04-24 15:29:00,76.9,27.8,30.04,SSW,203,5.1,7.4,17,0.00,,,0.00,WUHU216HW,2013-04-24 21:29:00,
2013-04-24 15:34:00,77.0,26.3,30.04,ESE,113,3.1,6.3,16,0.00,,,0.00,WUHU216HW,2013-04-24 21:34:00,
2013-04-24 15:39:00,77.2,28.1,30.04,ESE,113,3.1,6.3,17,0.00,,,0.00,WUHU216HW,2013-04-24 21:39:00,
2013-04-24 15:44:00,77.2,28.1,30.04,ENE,68,2.5,5.8,17,0.00,,,0.00,WUHU216HW,2013-04-24 21:44:00,
2013-04-24 15:49:00,77.4,28.3,30.04,ESE,113,2.7,4.5,17,0.00,,,0.00,WUHU216HW,2013-04-24 21:49:00,
2013-04-24 15:54:00,78.1,27.2,30.03,South,180,3.8,5.4,16,0.00,,,0.00,WUHU216HW,2013-04-24 21:54:00,
2013-04-24 15:59:00,78.3,27.3,30.03,WSW,248,1.8,5.4,16,0.00,,,0.00,WUHU216HW,2013-04-24 21:59:00,
2013-04-24 16:04:00,78.1,27.2,30.03,SE,135,0.9,4.7,16,0.00,,,0.00,WUHU216HW,2013-04-24 22:04:00,
2013-04-24 16:09:00,77.8,26.8,30.03,East,90,1.3,4.7,16,0.00,,,0.00,WUHU216HW,2013-04-24 22:09:00,
2013-04-24 16:14:00,77.6,26.7,30.02,ESE,113,2.5,5.4,16,0.00,,,0.00,WUHU216HW,2013-04-24 22:14:00,
2013-04-24 16:19:00,77.8,26.8,30.02,SE,135,1.3,5.4,16,0.00,,,0.00,WUHU216HW,2013-04-24 22:19:00,
2013-04-24 16:24:00,77.8,26.8,30.02,WSW,248,2.2,7.6,16,0.00,,,0.00,WUHU216HW,2013-04-24 22:24:00,
2013-04-24 16:29:00,77.9,27.0,30.02,South,180,5.4,7.6,16,0.00,,,0.00,WUHU216HW,2013-04-24 22:29:00,
2013-04-24 16:34:00,78.5,27.5,30.02,SSE,158,5.4,6.0,16,0.00,,,0.00,WUHU216HW,2013-04-24 22:34:00,
2013-04-24 16:39:00,78.5,25.7,30.01,East,90,1.1,5.4,15,0.00,,,0.00,WUHU216HW,2013-04-24 22:39:00,
2013-04-24 16:44:00,78.3,27.3,30.01,East,90,3.4,6.0,16,0.00,,,0.00,WUHU216HW,2013-04-24 22:44:00,
2013-04-24 16:49:00,78.1,27.2,30.01,NNE,23,1.3,6.0,16,0.00,,,0.00,WUHU216HW,2013-04-24 22:49:00,
2013-04-24 16:54:00,78.3,27.3,30.01,East,90,2.5,8.5,16,0.00,,,0.00,WUHU216HW,2013-04-24 22:54:00,
2013-04-24 16:59:00,78.1,25.5,30.01,ESE,113,1.8,8.5,15,0.00,,,0.00,WUHU216HW,2013-04-24 22:59:00,
2013-04-24 17:04:00,78.1,27.2,30.01,SSE,158,1.6,4.0,16,0.00,,,0.00,WUHU216HW,2013-04-24 23:04:00,
2013-04-24 17:09:00,78.3,25.6,30.01,SSW,203,3.1,4.0,15,0.00,,,0.00,WUHU216HW,2013-04-24 23:09:00,
2013-04-24 17:14:00,78.5,25.7,30.01,East,90,0.7,4.0,15,0.00,,,0.00,WUHU216HW,2013-04-24 23:14:00,
2013-04-24 17:19:00,78.1,25.5,30.01,ESE,113,1.8,4.0,15,0.00,,,0.00,WUHU216HW,2013-04-24 23:19:00,
2013-04-24 17:24:00,78.3,25.6,30.01,SSW,203,4.7,5.6,15,0.00,,,0.00,WUHU216HW,2013-04-24 23:24:00,
2013-04-24 17:29:00,78.7,25.9,30.01,SE,135,2.5,5.6,15,0.00,,,0.00,WUHU216HW,2013-04-24 23:29:00,
2013-04-24 17:34:00,78.7,25.9,30.01,East,90,2.5,6.0,15,0.00,,,0.00,WUHU216HW,2013-04-24 23:34:00,
2013-04-24 17:39:00,78.7,25.9,30.01,SE,135,1.8,6.0,15,0.00,,,0.00,WUHU216HW,2013-04-24 23:39:00,
2013-04-24 17:44:00,78.8,26.0,30.01,NE,45,0.4,4.5,15,0.00,,,0.00,WUHU216HW,2013-04-24 23:44:00,
2013-04-24 17:49:00,78.8,26.0,30.01,SE,135,2.2,4.7,15,0.00,,,0.00,WUHU216HW,2013-04-24 23:49:00,
2013-04-24 17:54:00,78.5,25.7,30.01,SE,135,3.1,4.7,15,0.00,,,0.00,WUHU216HW,2013-04-24 23:54:00,
2013-04-24 17:59:00,77.9,25.4,30.01,SSE,158,4.9,4.9,15,0.00,,,0.00,WUHU216HW,2013-04-24 23:59:00,
2013-04-24 18:04:00,77.8,25.2,30.01,SE,135,1.1,4.9,15,0.00,,,0.00,WUHU216HW,2013-04-25 00:04:00,
2013-04-24 18:09:00,77.8,25.2,30.01,ESE,113,1.1,4.9,15,0.00,,,0.00,WUHU216HW,2013-04-25 00:09:00,
2013-04-24 18:14:00,77.9,25.4,30.01,ESE,113,0.4,3.6,15,0.00,,,0.00,WUHU216HW,2013-04-25 00:14:00,
2013-04-24 18:19:00,77.6,25.0,30.01,East,90,0.9,4.5,15,0.00,,,0.00,WUHU216HW,2013-04-25 00:19:00,
2013-04-24 18:24:00,77.6,25.0,30.01,ESE,113,1.1,4.5,15,0.00,,,0.00,WUHU216HW,2013-04-25 00:24:00,
2013-04-24 18:29:00,77.6,25.0,30.01,ESE,113,2.9,5.4,15,0.00,,,0.00,WUHU216HW,2013-04-25 00:29:00,
2013-04-24 18:34:00,78.7,25.9,30.01,East,90,1.8,5.4,15,0.00,,,0.00,WUHU216HW,2013-04-25 00:34:00,
2013-04-24 18:39:00,81.4,28.1,30.01,SE,135,0.0,3.4,15,0.00,,,0.00,WUHU216HW,2013-04-25 00:39:00,
2013-04-24 18:44:00,85.1,25.9,30.01,SSW,203,5.4,6.3,12,0.00,,,0.00,WUHU216HW,2013-04-25 00:44:00,
2013-04-24 18:49:00,86.8,27.3,30.01,SSW,203,1.1,6.3,12,0.00,,,0.00,WUHU216HW,2013-04-25 00:49:00,
2013-04-24 18:54:00,88.4,26.7,30.01,SE,135,0.2,5.4,11,0.00,,,0.00,WUHU216HW,2013-04-25 00:54:00,
2013-04-24 18:59:00,89.1,27.3,30.01,SW,225,2.2,3.1,11,0.00,,,0.00,WUHU216HW,2013-04-25 00:59:00,
2013-04-24 19:04:00,88.0,26.6,30.01,ESE,113,1.1,3.6,11,0.00,,,0.00,WUHU216HW,2013-04-25 01:04:00,
2013-04-24 19:09:00,86.4,25.2,30.01,SE,135,1.3,3.6,11,0.00,,,0.00,WUHU216HW,2013-04-25 01:09:00,
2013-04-24 19:14:00,85.3,24.4,30.01,SSE,158,0.4,2.0,11,0.00,,,0.00,WUHU216HW,2013-04-25 01:14:00,
2013-04-24 19:19:00,83.2,22.7,30.01,SE,135,0.2,2.0,11,0.00,,,0.00,WUHU216HW,2013-04-25 01:19:00,
2013-04-24 19:24:00,80.5,22.3,30.01,ESE,113,0.4,2.0,12,0.00,,,0.00,WUHU216HW,2013-04-25 01:24:00,
2013-04-24 19:29:00,78.5,20.7,30.01,East,90,1.1,1.8,12,0.00,,,0.00,WUHU216HW,2013-04-25 01:29:00,
2013-04-24 19:34:00,76.9,21.3,30.02,East,90,0.0,1.8,13,0.00,,,0.00,WUHU216HW,2013-04-25 01:34:00,
2013-04-24 19:39:00,76.0,20.5,30.02,East,90,1.1,1.1,13,0.00,,,0.00,WUHU216HW,2013-04-25 01:39:00,
2013-04-24 19:44:00,74.9,21.3,30.02,East,90,0.0,1.1,14,0.00,,,0.00,WUHU216HW,2013-04-25 01:44:00,
2013-04-24 19:49:00,74.0,22.3,30.02,SSE,158,0.7,1.1,15,0.00,,,0.00,WUHU216HW,2013-04-25 01:49:00,
2013-04-24 19:54:00,73.1,21.6,30.02,SSE,158,0.0,0.7,15,0.00,,,0.00,WUHU216HW,2013-04-25 01:54:00,
2013-04-24 19:59:00,72.5,21.1,30.02,SE,135,0.0,0.7,15,0.00,,,0.00,WUHU216HW,2013-04-25 01:59:00,
2013-04-24 20:04:00,71.8,22.2,30.02,SSE,158,0.4,0.9,16,0.00,,,0.00,WUHU216HW,2013-04-25 02:04:00,
2013-04-24 20:09:00,71.3,21.7,30.02,SSE,158,0.0,1.3,16,0.00,,,0.00,WUHU216HW,2013-04-25 02:09:00,
2013-04-24 20:14:00,70.7,21.2,30.02,SE,135,0.0,1.3,16,0.00,,,0.00,WUHU216HW,2013-04-25 02:14:00,
2013-04-24 20:19:00,70.2,20.8,30.02,ESE,113,0.4,0.9,16,0.00,,,0.00,WUHU216HW,2013-04-25 02:19:00,
2013-04-24 20:24:00,69.8,22.1,30.03,ESE,113,0.0,0.9,17,0.00,,,0.00,WUHU216HW,2013-04-25 02:24:00,
2013-04-24 20:29:00,69.3,21.7,30.03,ESE,113,0.0,0.4,17,0.00,,,0.00,WUHU216HW,2013-04-25 02:29:00,
2013-04-24 20:34:00,68.9,21.4,30.03,SSE,158,0.4,1.6,17,0.00,,,0.00,WUHU216HW,2013-04-25 02:34:00,
2013-04-24 20:39:00,68.6,21.2,30.03,SE,135,1.1,1.6,17,0.00,,,0.00,WUHU216HW,2013-04-25 02:39:00,
2013-04-24 20:44:00,68.4,22.7,30.04,SE,135,1.3,4.0,18,0.00,,,0.00,WUHU216HW,2013-04-25 02:44:00,
2013-04-24 20:49:00,68.6,24.4,30.04,SE,135,2.5,4.0,19,0.00,,,0.00,WUHU216HW,2013-04-25 02:49:00,
2013-04-24 20:54:00,68.4,24.2,30.04,East,90,2.7,3.6,19,0.00,,,0.00,WUHU216HW,2013-04-25 02:54:00,
2013-04-24 20:59:00,68.2,26.7,30.05,ESE,113,3.1,3.4,21,0.00,,,0.00,WUHU216HW,2013-04-25 02:59:00,
2013-04-24 21:04:00,67.9,26.4,30.04,SE,135,3.4,4.9,21,0.00,,,0.00,WUHU216HW,2013-04-25 03:04:00,
2013-04-24 21:09:00,67.7,27.2,30.04,ESE,113,4.0,4.9,22,0.00,,,0.00,WUHU216HW,2013-04-25 03:09:00,
2013-04-24 21:14:00,67.5,28.1,30.05,East,90,1.8,4.5,23,0.00,,,0.00,WUHU216HW,2013-04-25 03:14:00,
2013-04-24 21:19:00,67.3,27.9,30.05,East,90,2.5,4.7,23,0.00,,,0.00,WUHU216HW,2013-04-25 03:19:00,
2013-04-24 21:24:00,67.1,27.7,30.05,SE,135,2.0,4.7,23,0.00,,,0.00,WUHU216HW,2013-04-25 03:24:00,
2013-04-24 21:29:00,67.0,27.6,30.05,SSE,158,3.1,3.8,23,0.00,,,0.00,WUHU216HW,2013-04-25 03:29:00,
2013-04-24 21:34:00,66.6,27.3,30.06,SE,135,1.3,3.6,23,0.00,,,0.00,WUHU216HW,2013-04-25 03:34:00,
2013-04-24 21:39:00,66.4,27.1,30.06,SSE,158,1.1,3.1,23,0.00,,,0.00,WUHU216HW,2013-04-25 03:39:00,
2013-04-24 21:44:00,66.2,27.0,30.06,SSW,203,0.9,3.6,23,0.00,,,0.00,WUHU216HW,2013-04-25 03:44:00,
2013-04-24 21:49:00,66.1,26.8,30.06,SE,135,2.0,3.6,23,0.00,,,0.00,WUHU216HW,2013-04-25 03:49:00,
2013-04-24 21:54:00,65.9,27.6,30.06,SE,135,2.7,4.0,24,0.00,,,0.00,WUHU216HW,2013-04-25 03:54:00,
2013-04-24 21:59:00,65.7,27.6,30.06,SE,135,1.8,4.7,24,0.00,,,0.00,WUHU216HW,2013-04-25 03:59:00,
2013-04-24 22:01:00,65.5,27.4,30.06,South,180,2.7,4.7,24,0.00,,,0.00,WUHU216HW,2013-04-25 04:01:00,
2013-04-24 22:06:00,65.3,27.2,30.06,SW,225,1.8,4.7,24,0.00,,,0.00,WUHU216HW,2013-04-25 04:06:00,
2013-04-24 22:11:00,65.3,27.2,30.06,SSW,203,1.1,4.0,24,0.00,,,0.00,WUHU216HW,2013-04-25 04:11:00,
2013-04-24 22:16:00,65.2,28.1,30.07,SSW,203,2.7,4.5,25,0.00,,,0.00,WUHU216HW,2013-04-25 04:16:00,
2013-04-24 22:21:00,65.2,28.1,30.07,SSW,203,0.7,4.5,25,0.00,,,0.00,WUHU216HW,2013-04-25 04:21:00,
2013-04-24 22:26:00,65.0,27.9,30.07,SSW,203,1.8,2.7,25,0.00,,,0.00,WUHU216HW,2013-04-25 04:26:00,
2013-04-24 22:31:00,64.6,27.6,30.07,ESE,113,1.1,4.3,25,0.00,,,0.00,WUHU216HW,2013-04-25 04:31:00,
2013-04-24 22:36:00,64.4,27.5,30.07,SSE,158,0.2,4.3,25,0.00,,,0.00,WUHU216HW,2013-04-25 04:36:00,
2013-04-24 22:41:00,64.4,27.5,30.07,SW,225,2.5,4.0,25,0.00,,,0.00,WUHU216HW,2013-04-25 04:41:00,
2013-04-24 22:46:00,64.4,27.5,30.07,South,180,3.1,4.0,25,0.00,,,0.00,WUHU216HW,2013-04-25 04:46:00,
2013-04-24 22:51:00,64.3,27.3,30.07,SSW,203,2.5,3.4,25,0.00,,,0.00,WUHU216HW,2013-04-25 04:51:00,
2013-04-24 22:56:00,64.1,27.2,30.07,WSW,248,2.5,3.1,25,0.00,,,0.00,WUHU216HW,2013-04-25 04:56:00,
2013-04-24 23:01:00,63.7,26.8,30.07,SW,225,2.0,3.1,25,0.00,,,0.00,WUHU216HW,2013-04-25 05:01:00,
2013-04-24 23:06:00,63.7,26.8,30.07,SSW,203,2.2,3.1,25,0.00,,,0.00,WUHU216HW,2013-04-25 05:06:00,
2013-04-24 23:11:00,63.5,27.6,30.07,SSW,203,2.5,4.7,26,0.00,,,0.00,WUHU216HW,2013-04-25 05:11:00,
2013-04-24 23:16:00,63.4,27.6,30.08,SE,135,0.4,4.9,26,0.00,,,0.00,WUHU216HW,2013-04-25 05:16:00,
2013-04-24 23:21:00,63.4,26.6,30.08,SE,135,0.9,4.9,25,0.00,,,0.00,WUHU216HW,2013-04-25 05:21:00,
2013-04-24 23:26:00,63.4,26.6,30.08,East,90,1.6,4.5,25,0.00,,,0.00,WUHU216HW,2013-04-25 05:26:00,
2013-04-24 23:31:00,63.2,26.4,30.08,SE,135,0.0,2.0,25,0.00,,,0.00,WUHU216HW,2013-04-25 05:31:00,
2013-04-24 23:36:00,63.0,26.2,30.08,SSE,158,0.7,2.0,25,0.00,,,0.00,WUHU216HW,2013-04-25 05:36:00,
2013-04-24 23:41:00,62.8,26.1,30.09,ESE,113,2.9,3.1,25,0.00,,,0.00,WUHU216HW,2013-04-25 05:41:00,
2013-04-24 23:46:00,62.6,26.9,30.09,SW,225,0.7,3.1,26,0.00,,,0.00,WUHU216HW,2013-04-25 05:46:00,
2013-04-24 23:51:00,62.5,25.7,30.09,SW,225,1.1,2.9,25,0.00,,,0.00,WUHU216HW,2013-04-25 05:51:00,
2013-04-24 23:56:00,62.3,25.7,30.09,WSW,248,2.0,3.4,25,0.00,,,0.00,WUHU216HW,2013-04-25 05:56:00,